Starlink 35018

operational
NORAD ID: 65288 Int'l Des: 2025-184 Owner: SPXS Country: US Constellation: starlink
LEOCIRCULARRETROGRADESSO

About Starlink 35018

Description loading...

Live Position

Loading 3D Globe...

Upcoming Passes

Altitude History

Altitude vs Time

uPlot chart will show altitude changes over time

Two-Line Element Set

1 65288U 25184R 26063.11543653 .00003295 00000-0 23247-3 0 9994
2 65288 97.6010 117.1897 0001147 104.1978 255.9376 15.05652650 30466
Epoch: Mar 4, 2026 • Age: 24 hours

Current Status

Altitude 562.2 km
Velocity 7.59 km/s
Sub-Earth Point 82.41°N, 128.19°W
Launch Date Aug 22, 2025
Age 0.5 years
Type internet

Technical Details

Classification Payload
Mass 575.00 kg
Dry Mass 530.00 kg
Total Mass 575.00 kg
Length 0.30 m
Diameter 4.10 m
Span 29.00 m
Shape Box + pan
Manufacturer SPXS
Bus Type Starlink V2MO
Phase Status In Orbit
Owner/State SPXS/US

Large Constellations

Loading constellations...